Weather History for Hutchinson, MN

Change the Weather History Date:

Friday, October 12, 2012

  Actual Average Record
Temperature  
Mean Temperature 36 °F -  
Max Temperature 54 °F 62 °F 84 °F (1975)
Min Temperature 19 °F 36 °F 19 °F (2012)
Degree Days  
Heating Degree Days 28    
Moisture  
Dew Point 22 °F    
Average Humidity 58    
Maximum Humidity 94    
Minimum Humidity 27    
Precipitation  
Precipitation 0.00 in - - ()
Sea Level Pressure  
Sea Level Pressure 30.29 in    
Wind  
Wind Speed 6 mph (SE)    
Max Wind Speed 16 mph    
Max Gust Speed 22 mph    
Visibility 10 miles    
Events      
Averages and records for this station are not official NWS values.
T = Trace of Precipitation, MM = Missing Value Source: NWS Daily Summary

Daily Weather History Graph

Daily Weather History Graph

Search for Another Location

Airport:

Trip Planner

Search our weather history database for the weather conditions in past years. The results will help you decide how hot, cold, wet, or windy it might be!

Date:

Astronomy

Oct. 12, 2012 Rise Set
Actual Time 7:29 AM CDT 6:37 PM CDT
Civil Twilight 7:00 AM CDT 7:06 PM CDT
Nautical Twilight 6:26 AM CDT 7:40 PM CDT
Astronomical Twilight 5:52 AM CDT 8:14 PM CDT
Moon 4:06 AM CDT (10/12) 4:52 PM CDT (10/12)
Length of Visible Light 12h 06m
Length of Day
11h 07m
Waning Crescent, 10% of the Moon is Illuminated
Oct 12
Waning Crescent
Oct 15
New
Oct 21
First Quarter
Oct 29
Full
Nov 6
Last Quarter

Hourly Weather History & Observations

Time (CDT) Temp. Windchill Dew Point Humidity Pressure Visibility Wind Dir Wind Speed Gust Speed Precip Events Conditions
12:10 AM 33.8 °F 26.4 °F 26.6 °F 75% 30.40 in 10.0 mi North 9.2 mph - N/A   Clear
12:30 AM 32.0 °F 24.8 °F 23.0 °F 69% 30.41 in 10.0 mi NNW 8.1 mph - N/A   Clear
1:10 AM 28.4 °F 24.6 °F 23.0 °F 80% 30.41 in 10.0 mi North 3.5 mph - N/A   Clear
1:30 AM 28.4 °F 23.3 °F 23.0 °F 80% 30.41 in 10.0 mi North 4.6 mph - N/A   Clear
1:50 AM 28.4 °F - 23.0 °F 80% 30.42 in 10.0 mi Calm Calm - N/A   Clear
2:10 AM 28.4 °F - 24.8 °F 86% 30.42 in 10.0 mi Calm Calm - N/A   Clear
2:30 AM 26.6 °F - 21.2 °F 80% 30.42 in 10.0 mi Calm Calm - N/A   Clear
2:50 AM 28.4 °F - 23.0 °F 80% 30.41 in 10.0 mi Calm Calm - N/A   Clear
3:10 AM 23.0 °F - 17.6 °F 80% 30.42 in 10.0 mi Calm Calm - N/A   Clear
3:19 AM 22.6 °F - 18.9 °F 85% 30.42 in 10.0 mi Calm Calm - N/A   Clear
3:28 AM 22.6 °F - 19.8 °F 89% 30.41 in 10.0 mi Calm Calm - N/A   Clear
3:49 AM 21.9 °F - 18.1 °F 85% 30.42 in 10.0 mi Calm Calm - N/A   Clear
4:09 AM 19.4 °F - 16.5 °F 89% 30.42 in 10.0 mi Calm Calm - N/A   Clear
4:29 AM 20.1 °F - 17.6 °F 90% 30.42 in 10.0 mi Calm Calm - N/A   Clear
4:48 AM 21.4 °F - 18.9 °F 90% 30.43 in 10.0 mi Calm Calm - N/A   Clear
5:09 AM 20.8 °F - 18.5 °F 91% 30.42 in 10.0 mi Calm Calm - N/A   Clear
5:49 AM 21.4 °F - 18.0 °F 87% 30.41 in 10.0 mi Calm Calm - N/A   Clear
6:08 AM 19.2 °F - 17.1 °F 91% 30.41 in 10.0 mi Calm Calm - N/A   Clear
6:29 AM 19.2 °F - 17.2 °F 92% 30.41 in 10.0 mi Calm Calm - N/A   Clear
6:49 AM 20.3 °F - 18.5 °F 93% 30.41 in 10.0 mi Calm Calm - N/A   Clear
7:09 AM 20.7 °F - 18.9 °F 93% 30.41 in 10.0 mi Calm Calm - N/A   Clear
7:29 AM 19.2 °F - 17.4 °F 93% 30.41 in 10.0 mi Calm Calm - N/A   Clear
7:48 AM 19.2 °F - 17.4 °F 93% 30.42 in 10.0 mi Calm Calm - N/A   Clear
8:08 AM 21.2 °F - 19.8 °F 94% 30.41 in 10.0 mi Calm Calm - N/A   Clear
8:29 AM 26.6 °F - 24.8 °F 93% 30.42 in 10.0 mi Calm Calm - N/A   Clear
9:09 AM 34.0 °F 29.8 °F 28.2 °F 79% 30.40 in 10.0 mi SE 4.6 mph - N/A   Clear
9:29 AM 36.5 °F 31.0 °F 27.9 °F 71% 30.40 in 10.0 mi SE 6.9 mph - N/A   Clear
9:49 AM 39.2 °F 32.5 °F 26.6 °F 61% 30.40 in 10.0 mi SE 10.4 mph - N/A   Clear
10:09 AM 40.8 °F 35.0 °F 25.2 °F 54% 30.39 in 10.0 mi SE 9.2 mph - N/A   Clear
10:29 AM 41.7 °F 34.4 °F 23.9 °F 49% 30.38 in 10.0 mi SE 13.8 mph 19.6 mph N/A   Clear
11:08 AM 44.1 °F 38.6 °F 24.8 °F 47% 30.37 in 10.0 mi SE 10.4 mph 17.3 mph N/A   Clear
11:29 AM 46.2 °F 41.7 °F 25.9 °F 45% 30.37 in 10.0 mi SE 9.2 mph 16.1 mph N/A   Clear
12:09 PM 48.9 °F - 26.1 °F 41% 30.35 in 10.0 mi SE 11.5 mph - N/A   Clear
12:29 PM 49.1 °F - 25.7 °F 40% 30.33 in 10.0 mi SSE 10.4 mph 17.3 mph N/A   Clear
12:48 PM 49.1 °F - 23.7 °F 37% 30.33 in 10.0 mi SSE 10.4 mph 16.1 mph N/A   Clear
1:30 PM 51.8 °F - 24.8 °F 35% 30.30 in 10.0 mi SSE 9.2 mph 17.3 mph N/A   Clear
1:50 PM 51.8 °F - 23.0 °F 33% 30.29 in 10.0 mi SSE 11.5 mph 19.6 mph N/A   Clear
2:30 PM 53.6 °F - 23.0 °F 30% 30.27 in 10.0 mi South 13.8 mph 19.6 mph N/A   Clear
3:10 PM 53.6 °F - 21.2 °F 28% 30.25 in 10.0 mi SSE 12.7 mph 21.9 mph N/A   Clear
3:22 PM 54.1 °F - 21.0 °F 27% 30.24 in 10.0 mi SSE 12.7 mph 18.4 mph N/A   Clear
3:48 PM 54.1 °F - 21.2 °F 28% 30.22 in 10.0 mi SSE 12.7 mph 21.9 mph N/A   Clear
4:09 PM 54.1 °F - 22.1 °F 29% 30.21 in 10.0 mi SSE 10.4 mph 19.6 mph N/A   Clear
4:11 PM 54.1 °F - 22.1 °F 29% 30.21 in 10.0 mi SSE 8.1 mph 17.3 mph N/A   Clear
5:09 PM 54.1 °F - 22.8 °F 30% 30.17 in 10.0 mi SSE 10.4 mph 18.4 mph N/A   Clear
5:49 PM 54.0 °F - 23.7 °F 31% 30.15 in 10.0 mi SE 11.5 mph 16.1 mph N/A   Clear
6:06 PM 51.8 °F - 21.9 °F 31% 30.14 in 10.0 mi SSE 6.9 mph - N/A   Clear
6:28 PM 49.3 °F - 20.5 °F 32% 30.12 in 10.0 mi SE 9.2 mph - N/A   Clear
6:49 PM 49.1 °F - 22.1 °F 35% 30.10 in 10.0 mi ESE 9.2 mph - N/A   Clear
7:09 PM 49.1 °F - 21.9 °F 34% 30.10 in 10.0 mi SE 9.2 mph - N/A   Mostly Cloudy
7:29 PM 49.1 °F - 22.8 °F 36% 30.09 in 10.0 mi SE 9.2 mph - N/A   Overcast
7:49 PM 49.3 °F - 22.1 °F 34% 30.08 in 10.0 mi SE 12.7 mph 16.1 mph N/A   Overcast
8:09 PM 50.4 °F - 22.1 °F 33% 30.08 in 10.0 mi SE 11.5 mph - N/A   Overcast
8:29 PM 49.1 °F - 21.2 °F 33% 30.06 in 10.0 mi SE 12.7 mph - N/A   Mostly Cloudy
9:09 PM 49.5 °F - 22.1 °F 34% 30.04 in 10.0 mi SE 13.8 mph 21.9 mph N/A   Overcast
9:29 PM 49.3 °F - 21.9 °F 34% 30.04 in 10.0 mi SE 13.8 mph 18.4 mph N/A   Overcast
9:49 PM 49.3 °F - 21.9 °F 34% 30.03 in 10.0 mi SE 16.1 mph 20.7 mph N/A   Overcast
10:09 PM 49.1 °F - 21.9 °F 34% 30.02 in 10.0 mi SSE 12.7 mph 21.9 mph N/A   Overcast
10:49 PM 50.4 °F - 23.0 °F 34% 29.99 in 10.0 mi SSE 11.5 mph 19.6 mph N/A   Overcast
11:29 PM 50.4 °F - 24.6 °F 37% 29.98 in 10.0 mi SSE 9.2 mph 17.3 mph N/A   Overcast
11:48 PM 50.4 °F - 25.3 °F 38% 29.97 in 10.0 mi SSE 10.4 mph 19.6 mph N/A   Overcast